Temp
7 7 7 8 7 9 11 12 10 10 10 11 12 12 12 12 12 12 12 11 11 11 11 11 11 12 12 12 12 12 12 11 11 11 11 11 11 11 11 11 11 11 11 12 12 12 12 12 11
7 7 7 8 8 11 11 11 10 10 9 11 11 12 12 12 11 11 11 11 11 11 11 11 11 11 11 12 12 12 12 12 11 11 11 11 11 11 11 11 11 11 11 11 11 12 12 11 11
7 7 7 7 8 9 11 10 10 9 10 10 10 11 11 11 11 11 11 11 11 11 11 11 11 11 11 11 11 11 11 11 11 11 11 11 11 11 11 11 11 11 11 11 11 11 11 11 11
6 6 7 7 9 10 9 8 8 8 9 10 10 11 11 11 11 11 11 11 11 11 11 11 11 11 11 11 11 11 11 11 11 11 11 11 11 11 11 11 11 11 11 11 11 11 11 11 11
6 5 7 8 9 9 9 8 8 9 9 10 10 11 10 10 11 11 11 10 10 10 10 10 10 10 10 10 10 10 10 11 11 11 11 11 11 11 11 11 11 11 10 10 10 10 10 10 10
5 5 7 8 9 9 8 8 8 8 8 9 9 10 10 10 11 11 11 10 10 10 10 10 10 10 10 10 10 10 10 10 10 10 11 11 11 11 11 10 10 10 10 9 9 9 9 9 9
5 5 7 8 9 8 8 7 8 8 8 9 10 10 10 10 11 11 10 10 10 10 10 10 10 10 10 10 9 9 9 9 10 10 10 10 10 10 10 10 10 9 9 9 9 9 8 8 8
4 5 6 7 8 8 8 7 7 8 8 8 9 10 9 10 10 10 10 10 10 10 10 10 10 10 10 9 9 9 9 9 9 9 9 9 9 9 9 9 9 8 8 8 8 8 8 8 8
5 4 6 7 7 7 7 7 7 7 9 9 9 9 9 10 10 10 10 10 10 10 10 10 10 9 9 9 9 9 9 9 9 9 9 9 9 9 8 8 8 8 7 7 7 8 8 8 7
3 4 5 7 7 7 7 6 6 7 7 7 8 8 9 9 9 10 10 10 10 10 10 10 10 9 9 9 9 9 9 8 8 8 8 8 8 8 8 8 8 7 7 7 7 7 7 7 6
3 4 5 6 6 6 5 5 6 6 8 8 8 7 7 8 9 9 10 10 10 10 10 10 10 9 9 9 9 9 8 8 8 7 7 7 7 7 7 7 7 7 7 6 6 6 6 5 5
3 4 4 5 5 5 5 5 5 5 7 6 7 8 7 8 8 9 9 9 9 10 10 9 9 9 9 9 9 8 8 8 8 8 7 6 6 6 6 6 6 6 6 6 5 5 5 5 4
3 4 4 4 5 4 4 5 6 6 6 8 8 7 8 9 9 9 9 9 9 9 9 9 9 9 9 9 8 8 8 8 8 8 7 7 6 6 6 6 6 5 5 5 5 5 5 5 4
3 3 4 4 4 4 4 5 5 6 7 7 6 7 8 9 9 9 9 9 9 9 9 9 9 9 9 8 8 8 8 8 8 8 7 7 6 6 6 5 5 5 5 5 4 4 4 4 4
2 3 3 4 4 4 4 4 5 6 7 6 7 8 8 9 9 9 9 9 10 10 9 9 9 9 9 8 8 8 8 8 8 7 7 7 6 6 6 5 5 5 5 4 4 4 4 5 5
2 2 3 3 4 4 4 5 6 7 6 6 7 8 9 9 9 9 10 10 10 10 9 9 9 9 9 8 8 8 8 7 7 7 7 7 6 6 5 5 5 5 4 5 5 5 5 5 4
2 3 3 3 5 5 4 5 6 6 6 7 6 6 7 8 8 9 9 10 9 9 8 8 9 9 9 8 8 8 7 7 7 7 7 6 6 5 5 5 5 4 4 4 4 4 4 4 4
2 2 4 4 5 5 5 5 5 6 6 6 6 7 7 7 8 9 9 8 8 8 8 8 8 8 8 8 8 8 7 7 7 7 6 5 5 5 5 5 4 4 4 4 4 4 4 3 4
3 4 5 6 6 6 5 5 6 6 6 6 6 6 7 7 8 8 8 8 8 8 8 8 8 8 8 8 8 7 7 7 7 6 6 5 5 5 5 4 4 4 4 4 3 4 4 4 4
2 3 6 6 6 5 5 6 6 6 6 6 7 6 7 7 7 7 7 7 8 8 7 7 7 7 7 7 7 7 7 7 6 6 5 5 5 4 4 4 4 3 3 3 3 3 3 3 3
1 3 6 6 5 4 4 5 5 6 6 7 7 6 7 7 7 7 7 7 7 7 7 7 7 7 6 6 7 7 7 6 6 5 5 4 4 4 4 3 3 3 3 3 2 2 2 3 3
1 3 5 5 4 5 5 8 9 8 7 8 8 7 7 7 7 7 7 7 7 6 6 6 6 6 6 6 6 6 6 5 5 4 4 4 4 4 3 3 3 2 2 2 2 2 2 2 1
1 2 4 3 4 3 4 6 8 8 8 7 8 7 7 7 7 7 6 6 6 6 6 6 6 6 6 6 6 6 6 5 4 4 4 3 3 3 2 2 2 2 1 1 1 1 1 0 -0
1 3 3 3 3 4 6 7 9 9 8 8 8 7 7 7 6 6 6 6 6 6 6 6 6 6 6 6 5 5 4 4 3 3 3 3 3 2 2 1 1 1 1 1 0 -0 -0 -1 -1
0 1 2 3 2 7 7 7 9 8 8 7 7 6 6 6 6 6 6 6 5 5 5 5 5 6 5 5 5 4 3 3 2 2 2 2 2 1 1 1 1 1 0 0 -0 -1 -1 -2 -2
0 2 5 5 6 8 5 7 8 7 7 7 7 6 6 6 6 5 5 5 5 5 5 5 5 5 5 4 4 3 2 2 2 1 1 1 1 0 0 -0 -0 -0 -1 -1 -2 -2 -2 -2 -2
1 2 5 6 7 9 7 7 7 7 7 7 7 7 6 6 6 5 5 5 5 5 5 5 5 4 4 3 3 2 2 2 1 1 1 0 0 -0 -0 -1 -1 -1 -2 -2 -2 -2 -2 -3 -3
1 3 4 5 7 8 9 9 9 7 7 7 7 7 7 6 6 6 5 5 5 5 4 4 4 4 3 3 2 2 1 1 1 0 -0 -0 -0 -1 -1 -1 -1 -2 -2 -3 -3 -3 -3 -3 -3
1 2 3 6 7 9 10 9 8 7 7 8 7 7 7 6 6 5 5 5 5 4 4 4 3 3 3 2 2 1 1 0 -0 -1 -1 -1 -1 -1 -1 -2 -2 -3 -3 -3 -3 -3 -4 -4 -4
1 1 3 6 6 6 7 8 7 7 7 8 8 8 7 6 6 5 5 5 4 4 4 3 3 3 3 2 1 1 0 -0 -1 -1 -1 -2 -2 -2 -2 -3 -3 -3 -3 -4 -4 -4 -4 -4 -4
Height
3144 3144 3143 3143 3150 3146 3142 3143 3143 3145 3144 3142 3142 3143 3145 3145 3146 3146 3142 3141 3140 3138 3136 3135 3132 3130 3128 3125 3124 3123 3122 3121 3120 3119 3118 3119 3118 3118 3118 3118 3119 3119 3120 3120 3121 3120 3121 3120 3120
3143 3144 3143 3143 3146 3142 3140 3141 3143 3144 3141 3141 3142 3143 3144 3146 3143 3142 3142 3141 3139 3138 3136 3134 3132 3130 3128 3126 3124 3123 3122 3121 3120 3120 3119 3119 3118 3118 3118 3118 3118 3118 3118 3119 3119 3119 3119 3119 3119
3141 3143 3144 3144 3142 3141 3139 3139 3141 3140 3140 3141 3142 3142 3143 3143 3142 3141 3140 3140 3139 3137 3135 3134 3132 3130 3128 3126 3124 3123 3122 3122 3121 3120 3119 3118 3118 3118 3117 3117 3117 3117 3116 3116 3117 3117 3117 3117 3116
3139 3143 3143 3141 3139 3140 3139 3139 3138 3137 3140 3140 3140 3141 3141 3140 3140 3139 3139 3139 3138 3136 3135 3134 3132 3131 3129 3127 3125 3123 3123 3122 3121 3120 3119 3118 3118 3117 3117 3117 3116 3116 3115 3115 3115 3115 3115 3114 3114
3139 3140 3140 3138 3137 3138 3138 3138 3136 3136 3137 3138 3138 3141 3140 3138 3137 3137 3137 3137 3137 3135 3134 3134 3133 3131 3129 3127 3125 3124 3123 3122 3121 3120 3119 3118 3117 3116 3116 3116 3116 3115 3114 3114 3114 3113 3113 3112 3112
3135 3138 3137 3134 3134 3136 3136 3136 3135 3136 3137 3137 3137 3136 3137 3135 3135 3135 3136 3136 3135 3134 3134 3133 3132 3131 3129 3127 3126 3124 3123 3122 3121 3120 3119 3117 3116 3116 3115 3115 3114 3113 3113 3113 3112 3111 3110 3109 3109
3131 3135 3134 3133 3132 3134 3135 3131 3133 3134 3135 3137 3134 3137 3136 3133 3133 3134 3134 3134 3134 3133 3133 3132 3131 3130 3129 3127 3125 3124 3123 3122 3121 3120 3119 3117 3116 3115 3113 3112 3112 3111 3111 3109 3109 3109 3107 3106 3105
3127 3131 3130 3130 3131 3132 3132 3129 3130 3131 3131 3130 3133 3136 3136 3129 3131 3132 3132 3132 3132 3131 3131 3131 3130 3129 3129 3127 3126 3124 3122 3121 3120 3119 3118 3117 3115 3114 3113 3111 3110 3110 3108 3108 3107 3105 3105 3104 3104
3124 3126 3123 3126 3128 3130 3129 3128 3129 3128 3128 3128 3129 3130 3128 3129 3129 3129 3130 3131 3130 3130 3130 3129 3129 3128 3126 3125 3124 3123 3121 3120 3119 3117 3116 3115 3113 3113 3112 3111 3110 3108 3107 3106 3105 3105 3104 3103 3102
3115 3118 3119 3124 3125 3127 3127 3125 3125 3125 3126 3126 3128 3128 3127 3126 3127 3127 3128 3128 3128 3128 3128 3127 3127 3127 3125 3124 3122 3121 3120 3118 3117 3115 3114 3113 3112 3111 3110 3109 3108 3107 3106 3105 3103 3103 3101 3101 3099
3111 3110 3118 3120 3122 3122 3121 3120 3122 3121 3121 3122 3125 3124 3123 3121 3124 3125 3125 3126 3126 3126 3126 3126 3125 3124 3123 3122 3120 3119 3118 3116 3114 3113 3112 3111 3110 3109 3108 3107 3107 3106 3105 3103 3102 3100 3099 3097 3095
3106 3108 3112 3116 3117 3116 3115 3116 3116 3117 3117 3117 3116 3117 3117 3119 3121 3122 3122 3123 3124 3124 3123 3123 3123 3122 3121 3120 3118 3116 3115 3114 3113 3111 3110 3109 3108 3108 3106 3105 3104 3103 3101 3100 3099 3096 3094 3093 3091
3100 3105 3108 3110 3112 3110 3110 3109 3109 3109 3112 3114 3113 3113 3114 3115 3117 3118 3119 3120 3121 3121 3120 3120 3120 3119 3118 3117 3116 3115 3113 3112 3111 3110 3109 3108 3107 3106 3104 3102 3101 3099 3098 3096 3094 3092 3090 3088 3086
3096 3101 3102 3105 3105 3106 3106 3105 3106 3105 3109 3109 3109 3108 3109 3110 3112 3114 3115 3117 3117 3117 3117 3116 3117 3116 3116 3115 3113 3112 3111 3111 3109 3108 3107 3106 3104 3103 3102 3100 3098 3095 3093 3092 3090 3088 3085 3082 3080
3092 3096 3096 3097 3101 3101 3104 3098 3098 3102 3104 3104 3103 3104 3103 3105 3107 3109 3111 3112 3113 3112 3112 3112 3113 3113 3112 3111 3110 3109 3108 3108 3107 3106 3104 3103 3102 3100 3098 3096 3094 3092 3090 3087 3084 3081 3079 3077 3074
3087 3089 3088 3091 3095 3097 3099 3089 3097 3101 3100 3100 3098 3098 3099 3100 3101 3103 3106 3107 3107 3107 3107 3108 3109 3109 3108 3107 3107 3106 3105 3104 3104 3103 3102 3100 3098 3097 3095 3092 3090 3088 3085 3082 3080 3078 3075 3072 3068
3077 3077 3079 3086 3090 3093 3092 3087 3093 3096 3095 3095 3095 3096 3095 3095 3096 3098 3100 3101 3101 3102 3103 3104 3104 3104 3104 3103 3103 3102 3102 3101 3101 3100 3098 3097 3095 3094 3091 3089 3087 3084 3081 3078 3075 3072 3068 3065 3062
3067 3071 3076 3079 3084 3085 3087 3085 3089 3091 3092 3091 3092 3095 3092 3093 3094 3095 3095 3096 3098 3099 3099 3099 3099 3100 3099 3099 3099 3098 3098 3098 3097 3097 3095 3093 3092 3090 3087 3085 3083 3080 3076 3073 3070 3067 3064 3059 3054
3068 3068 3071 3075 3078 3082 3082 3081 3083 3085 3087 3088 3088 3090 3089 3090 3091 3091 3092 3093 3094 3095 3095 3095 3096 3097 3097 3097 3097 3097 3097 3096 3095 3094 3092 3090 3088 3086 3084 3081 3078 3075 3071 3068 3064 3060 3056 3053 3047
3059 3063 3065 3071 3074 3076 3078 3076 3077 3080 3080 3083 3084 3085 3084 3085 3087 3088 3089 3090 3091 3091 3091 3092 3093 3094 3095 3095 3094 3094 3094 3093 3091 3090 3089 3087 3085 3082 3080 3077 3073 3070 3066 3062 3057 3052 3048 3044 3039
3050 3056 3061 3067 3070 3071 3074 3071 3069 3071 3075 3075 3077 3079 3079 3081 3083 3084 3085 3086 3087 3087 3089 3090 3092 3092 3093 3092 3092 3092 3090 3089 3088 3086 3084 3082 3080 3078 3075 3071 3067 3063 3059 3054 3050 3044 3039 3033 3030
3047 3053 3059 3064 3066 3069 3070 3063 3060 3064 3066 3067 3070 3073 3073 3075 3078 3080 3081 3083 3084 3085 3087 3089 3090 3091 3091 3091 3090 3089 3087 3086 3084 3082 3080 3078 3076 3073 3069 3065 3060 3056 3051 3047 3042 3036 3030 3024 3019
3041 3050 3055 3060 3063 3065 3065 3067 3058 3060 3061 3062 3065 3066 3068 3070 3073 3076 3078 3079 3081 3083 3085 3086 3088 3088 3088 3088 3086 3085 3083 3082 3080 3078 3076 3073 3070 3066 3062 3057 3053 3049 3043 3038 3033 3029 3024 3018 3012
3035 3044 3051 3056 3060 3061 3059 3062 3054 3053 3056 3059 3059 3059 3061 3064 3068 3071 3074 3076 3078 3080 3082 3084 3085 3085 3085 3084 3082 3081 3080 3078 3076 3074 3071 3068 3063 3059 3055 3050 3046 3041 3036 3031 3026 3021 3015 3010 3004
3027 3036 3045 3054 3057 3051 3051 3055 3051 3051 3052 3053 3054 3054 3057 3060 3064 3069 3071 3073 3075 3078 3080 3081 3081 3081 3081 3080 3079 3077 3076 3074 3071 3069 3066 3062 3057 3053 3048 3044 3038 3033 3027 3022 3017 3012 3006 3001 2996
3020 3027 3032 3033 3039 3043 3050 3049 3047 3047 3049 3050 3052 3053 3055 3058 3062 3065 3068 3070 3072 3075 3077 3078 3078 3078 3077 3076 3074 3073 3071 3069 3066 3063 3059 3055 3050 3046 3041 3036 3030 3025 3020 3014 3008 3002 2997 2992 2987
3018 3025 3028 3029 3030 3033 3041 3044 3043 3044 3045 3047 3048 3050 3052 3056 3060 3062 3065 3067 3070 3072 3073 3074 3074 3074 3073 3071 3069 3067 3065 3063 3060 3056 3052 3048 3043 3038 3033 3027 3022 3016 3010 3005 3000 2995 2990 2984 2979
3016 3025 3030 3028 3032 3033 3033 3037 3037 3041 3042 3043 3045 3046 3049 3053 3056 3059 3062 3064 3067 3069 3070 3071 3071 3070 3068 3066 3064 3062 3060 3057 3053 3049 3045 3041 3035 3030 3025 3019 3014 3009 3004 2998 2992 2986 2981 2974 2967
3016 3019 3025 3026 3029 3025 3025 3032 3036 3039 3040 3041 3042 3043 3046 3049 3053 3057 3059 3061 3064 3066 3067 3067 3066 3065 3063 3061 3059 3057 3054 3051 3047 3042 3038 3033 3028 3022 3016 3011 3006 3001 2996 2990 2982 2976 2969 2962 2955
3014 3017 3025 3026 3031 3030 3030 3034 3035 3037 3039 3039 3040 3041 3043 3047 3051 3054 3056 3059 3061 3062 3063 3063 3062 3060 3058 3056 3054 3051 3048 3044 3040 3035 3031 3026 3020 3014 3008 3003 2998 2992 2986 2979 2972 2965 2959 2952 2943
Wind_Speed
11 8 8 8 2 8 15 14 8 7 5 10 9 10 6 5 5 3 5 6 8 10 11 12 13 13 14 13 9 6 5 4 3 3 2 4 5 7 7 6 6 7 8 9 10 11 13 14 15
13 10 8 7 5 13 14 14 10 9 7 8 9 8 5 1 5 4 4 4 7 9 11 12 13 13 12 11 8 5 4 3 2 3 4 5 6 8 7 7 8 8 8 10 11 13 14 15 16
14 12 7 5 7 13 8 8 8 10 8 10 4 6 6 3 6 5 4 4 6 8 10 11 12 12 12 11 10 6 4 4 4 4 5 6 7 9 9 10 10 11 10 11 13 15 16 16 17
15 10 10 10 12 9 14 6 10 8 6 10 9 4 10 9 8 7 5 5 6 8 9 10 10 11 11 10 10 9 7 5 6 6 6 7 9 10 11 12 12 12 12 13 15 16 17 18 19
16 12 13 15 13 10 10 13 13 16 13 12 13 5 5 10 11 10 8 7 6 8 9 9 10 10 9 9 9 8 8 7 7 8 9 9 10 11 13 13 14 14 14 15 17 17 19 20 21
16 12 16 17 14 10 10 11 12 11 10 10 10 14 9 13 11 11 10 9 7 7 9 10 11 11 11 9 9 9 9 9 9 8 8 9 11 13 14 14 15 16 16 17 18 18 18 19 20
20 16 21 20 17 15 12 12 9 12 9 8 15 11 8 17 14 13 11 11 9 8 9 10 12 12 13 12 11 10 11 10 10 10 10 10 9 10 12 13 14 16 17 17 17 17 17 18 19
20 19 23 21 19 18 13 11 11 13 13 15 16 6 8 18 15 15 14 13 12 11 11 12 14 14 15 15 15 14 12 13 14 14 14 13 12 12 12 12 12 14 15 16 16 17 18 18 21
27 23 25 23 19 18 13 11 10 17 18 18 17 18 19 17 17 15 14 13 14 15 14 16 16 17 18 19 17 18 17 16 17 16 16 16 15 15 15 14 15 16 17 18 19 20 21 22 23
29 27 28 20 18 18 14 15 13 17 14 13 13 15 20 20 17 16 14 15 16 17 18 18 17 18 19 21 20 20 19 17 18 17 17 17 17 17 18 18 19 19 19 20 20 20 20 21 21
27 34 23 22 21 20 19 18 14 18 23 16 13 14 15 22 18 18 17 17 17 17 17 18 18 19 20 21 20 21 19 19 20 17 17 18 18 18 18 19 20 20 21 21 21 21 22 23 23
33 28 30 24 23 20 22 22 21 19 23 21 24 21 24 23 20 21 19 18 18 19 19 18 18 19 21 19 18 18 19 20 18 17 17 18 19 19 20 20 21 22 23 24 24 25 26 27 28
33 31 28 27 25 22 23 28 30 27 22 22 25 26 27 26 28 26 23 20 19 18 19 20 20 19 18 17 18 19 20 19 18 18 17 18 19 21 22 23 24 25 26 27 28 29 31 32 33
28 30 31 26 23 25 25 29 26 28 19 19 21 24 31 31 30 28 28 24 23 24 23 21 19 17 18 20 21 21 20 20 18 20 18 18 20 21 22 24 26 27 28 29 31 32 33 34 35
32 29 23 33 28 26 23 32 33 27 17 24 23 24 32 35 33 32 29 28 28 28 26 22 20 19 21 23 23 22 20 20 19 20 19 19 20 21 22 24 25 27 28 29 30 31 32 33 34
37 33 36 26 25 25 23 33 18 10 19 15 18 20 26 32 35 36 33 31 30 27 23 21 19 19 21 23 22 21 20 19 19 20 20 19 20 20 22 24 26 27 29 30 31 32 33 33 34
32 36 37 26 26 24 24 27 18 18 24 20 14 14 19 21 23 24 24 24 22 20 18 17 18 19 18 19 19 18 18 19 19 20 20 20 21 23 25 27 29 30 31 31 32 32 34 35 37
33 37 29 30 25 25 27 30 24 18 17 16 15 15 20 16 14 15 16 16 16 16 16 17 17 14 12 12 13 15 16 17 18 20 21 22 24 26 28 30 30 31 31 31 33 34 35 37 41
31 28 30 23 23 28 29 28 26 21 23 19 17 17 21 18 15 14 15 15 14 15 15 14 11 9 9 10 10 11 12 14 17 21 22 24 26 27 29 29 30 30 32 33 35 38 40 41 43
33 31 29 22 21 21 19 22 24 24 24 21 20 19 23 22 19 17 16 16 14 13 12 11 9 8 8 8 10 12 15 18 20 22 23 25 26 26 27 28 29 31 33 36 39 41 42 43 44
34 32 29 27 20 19 16 25 28 28 24 27 23 22 24 22 20 19 19 16 14 13 12 11 10 9 9 9 11 14 17 19 20 20 20 22 23 25 27 30 33 35 37 38 40 42 43 43 41
40 30 25 23 13 13 14 9 13 19 27 26 26 29 29 27 24 21 20 17 15 14 13 12 10 9 9 10 13 15 17 17 17 18 20 22 25 27 30 33 35 37 38 39 41 41 40 41 42
29 26 23 18 14 8 12 9 18 14 20 20 21 25 29 26 27 23 20 17 16 16 14 12 11 9 9 12 15 17 17 17 17 20 23 25 29 32 32 34 35 36 38 38 37 37 38 39 41
22 29 19 12 7 8 17 18 15 18 17 16 22 25 27 28 27 24 20 18 18 17 15 13 11 10 11 14 16 16 15 16 19 22 25 30 32 31 31 34 35 37 36 35 35 37 38 40 41
31 36 9 6 5 7 9 16 16 5 12 9 9 19 22 24 25 22 20 21 20 18 16 14 12 11 14 16 19 17 17 19 23 26 30 32 31 32 34 35 36 36 34 35 37 38 39 40 42
33 27 13 7 9 12 9 9 9 18 19 19 13 11 20 23 23 21 22 22 21 19 17 15 13 15 17 20 20 19 21 24 28 30 34 35 34 36 37 37 36 35 36 37 38 40 41 43 44
28 26 7 5 6 11 11 11 6 10 7 10 17 19 21 23 22 22 24 23 21 20 18 16 16 18 20 23 22 23 26 29 32 35 38 37 38 40 39 39 37 37 38 40 41 42 43 44 46
26 21 11 4 7 5 9 9 6 10 5 7 16 17 22 24 23 24 25 24 22 20 19 19 18 20 23 25 24 27 30 32 36 39 41 42 42 43 41 39 38 38 39 40 41 43 44 47 49
29 18 9 7 1 3 6 6 12 8 2 5 11 16 19 27 26 23 24 24 21 20 20 20 21 23 26 27 27 30 33 35 39 42 44 44 44 43 40 39 38 39 40 41 44 45 47 50 52
21 24 18 12 7 7 4 6 16 5 2 2 5 10 18 25 25 23 24 23 20 20 21 21 23 26 29 29 30 33 35 38 42 45 45 45 44 42 39 40 40 41 43 46 47 48 50 52 54
Wind_Direction
282 305 333 343 276 235 235 227 227 218 226 229 224 226 247 270 310 312 329 335 347 353 359 359 357 357 360 1 353 358 352 331 294 263 243 232 213 211 212 210 224 222 235 248 254 263 268 268 267
269 289 313 329 247 242 238 221 230 229 264 228 226 221 242 295 243 250 291 326 339 350 357 2 4 3 3 7 356 348 354 352 315 277 257 241 233 225 222 227 231 238 239 254 259 263 264 268 271
259 277 301 267 262 255 291 197 229 251 252 239 232 234 227 226 235 245 270 306 334 346 352 0 3 5 7 9 12 354 332 319 297 275 259 246 243 237 234 235 238 244 251 255 263 264 267 271 274
256 282 283 251 257 256 257 245 262 243 242 238 232 237 261 239 230 234 253 279 322 337 342 351 354 358 2 8 14 14 353 316 291 284 270 255 242 248 245 246 250 252 257 262 263 267 271 271 272
251 255 254 254 256 258 253 254 265 232 232 227 227 204 256 228 240 236 248 264 307 325 329 333 337 344 349 357 6 7 360 350 325 295 281 268 261 258 258 262 263 265 267 266 268 270 274 275 275
242 248 247 249 249 252 264 260 253 248 264 263 242 234 246 239 234 231 240 250 277 307 310 316 323 328 335 345 351 349 348 345 333 324 306 289 278 270 269 269 270 272 273 273 273 273 276 279 281
238 235 249 251 258 254 269 252 246 246 259 259 238 234 263 243 234 237 246 246 260 290 294 305 309 317 325 331 333 332 330 325 320 318 313 305 293 281 271 268 269 272 272 273 275 277 277 278 283
228 239 247 246 249 257 258 256 250 239 237 241 234 231 212 241 238 239 243 251 253 275 286 297 300 308 316 320 321 321 320 317 314 312 309 304 298 289 280 276 273 271 272 274 276 282 286 292 290
234 234 239 239 242 249 258 259 246 251 238 237 237 237 240 241 241 243 249 249 256 271 286 292 294 302 311 314 315 315 315 313 310 308 305 304 303 300 296 293 288 287 287 290 293 295 298 298 299
226 232 236 239 245 246 246 262 267 260 247 251 258 266 260 253 246 243 247 254 264 273 285 286 287 294 305 308 309 309 309 308 304 302 304 303 305 306 305 301 298 295 295 296 301 304 308 308 310
232 232 238 238 245 243 252 253 272 265 242 242 251 245 258 254 248 250 253 261 273 280 284 284 287 293 302 304 307 308 310 314 310 303 301 299 301 302 301 301 301 302 304 306 307 309 309 309 311
231 236 236 237 247 251 254 262 262 258 256 253 245 250 254 253 252 249 251 261 272 279 278 281 286 292 296 299 301 304 308 315 315 308 297 294 297 300 302 304 307 308 310 309 309 309 307 306 305
229 236 238 239 238 248 258 257 261 253 259 258 259 259 253 252 248 250 252 259 269 276 276 276 281 287 287 292 295 298 303 311 311 311 307 300 297 299 300 302 302 302 300 302 302 300 300 300 300
231 232 238 240 242 248 258 259 261 256 255 256 267 265 252 254 251 251 252 257 265 271 274 275 278 280 281 287 289 291 297 304 305 307 309 305 300 297 297 297 295 296 298 298 298 298 301 301 300
230 236 243 234 239 246 259 262 254 263 259 271 272 264 257 253 257 256 258 261 265 269 271 267 273 275 280 280 280 284 290 295 298 301 304 302 298 297 296 295 296 296 297 299 300 302 301 299 298
227 230 236 233 235 242 236 255 255 258 247 259 274 256 256 257 257 258 259 262 266 265 259 261 269 273 272 272 273 275 280 284 290 296 295 295 294 295 295 296 295 298 298 299 299 297 295 295 297
216 224 227 236 229 235 235 254 262 247 251 255 260 259 252 251 256 258 258 258 253 250 255 262 269 272 267 260 261 266 272 278 286 287 289 292 294 293 293 294 294 296 296 295 296 297 299 299 298
210 215 223 227 221 228 232 244 248 243 255 263 254 242 250 253 249 247 238 235 239 249 260 267 270 261 249 248 251 257 265 273 279 281 284 286 288 290 292 293 293 295 297 297 297 297 298 299 298
218 214 217 226 220 228 241 248 245 246 247 254 249 234 249 250 242 234 228 231 242 254 261 263 252 250 251 256 259 265 273 279 282 283 284 286 289 290 291 292 294 295 295 296 296 297 298 298 300
209 214 211 217 215 225 237 244 247 243 245 246 244 232 243 247 240 234 228 231 240 248 245 233 228 229 240 250 262 271 275 278 280 284 287 289 290 291 292 293 293 293 294 297 299 300 302 303 304
222 214 211 213 210 235 245 258 250 242 244 236 237 226 236 236 233 234 232 231 233 231 221 219 223 236 249 264 276 281 282 284 287 289 288 289 293 295 295 295 296 298 300 302 304 306 306 307 307
206 207 202 195 195 222 213 273 219 223 229 236 235 230 235 232 226 226 223 223 223 215 213 219 231 246 266 279 283 288 293 294 295 297 299 300 299 298 298 299 301 303 303 304 305 309 309 310 311
208 190 188 184 202 247 224 244 257 224 211 220 229 230 231 228 227 218 214 214 212 209 214 225 238 255 274 287 299 305 304 301 300 301 301 303 304 303 303 303 303 305 306 309 310 311 310 310 312
196 172 167 179 193 231 231 220 258 218 212 221 236 229 225 224 214 205 205 208 205 208 219 232 245 263 285 304 312 310 303 300 302 306 309 310 308 306 307 308 310 312 311 311 311 312 313 314 315
187 165 151 163 196 220 180 210 225 177 200 192 230 222 215 209 204 202 205 204 203 212 225 236 250 274 299 315 316 308 302 306 311 311 312 312 310 310 310 311 314 313 314 314 315 315 315 315 313
175 165 168 161 185 196 165 221 224 224 234 244 233 210 209 198 197 201 203 200 207 218 230 242 262 286 306 318 314 307 306 308 311 313 315 314 312 312 314 316 316 315 315 316 317 317 316 315 314
176 196 185 121 72 164 179 218 241 209 227 216 216 219 206 199 200 204 202 204 213 224 235 249 271 294 307 314 309 305 307 309 311 313 315 314 313 316 316 317 317 318 318 318 318 316 315 313 313
177 171 183 190 153 188 164 199 137 164 197 219 216 221 212 203 206 207 205 210 219 230 241 255 275 298 305 309 304 304 306 308 310 312 313 314 314 316 317 317 317 317 317 316 315 315 314 313 314
184 183 184 201 236 228 165 153 151 162 184 221 218 225 218 208 209 209 210 215 224 236 247 261 278 296 301 303 302 302 304 305 307 310 311 313 315 317 317 316 315 316 316 316 316 315 314 314 314
195 195 199 198 174 247 339 116 171 131 77 218 225 227 218 211 209 211 216 222 231 243 253 266 282 294 299 298 300 301 301 303 306 307 310 312 315 317 316 315 317 317 319 319 316 315 314 314 315